Tracking 19969 objects as of 12-Nov-2019
Live streaming from Space Station
objects crossing your sky now
Track the group of recently launched Starlink satellites

GALAXY 10R

Track GALAXY 10R now!
GALAXY 10R is classified as:


NORAD ID: 26056
Int'l Code: 2000-002A
Perigee: 35,962.9 km
Apogee: 35,978.2 km
Inclination: 8.4 °
Period: 1,445.1 minutes
Semi major axis: 42341 km
RCS: 16.229 m2 (large)
Launch date: January 25, 2000
Source: United States (US)
Launch site: FRENCH GUIANA (FRGUI)

Digital and voice communications; 24 C-band< 24 Ku-band; North America.
aabbcc
Your satellite tracking list
Your tracking list is empty




NASA's NSSDC Master Catalog

Two Line Element Set (TLE):
1 26056U 00002A   19315.63891847 -.00000333 +00000-0 +00000-0 0  9996
2 26056 008.4436 046.5331 0001810 161.8070 205.1370 00.99644475072321
Source of the keplerian elements: AFSPC